Location: Lafig�re
(44.4503°N, 4.0357°E)
Time: 16:31:34
(UTC+00:00)

Meteor 1-12 Rocket - Pass Details

Date: 24 September 2020
Orbit: 854 x 927 km, 81.2° (Epoch: 25 October)

Event Time Altitude Azimuth Distance (km) Brightness Sun altitude
Rises 18:05:07 0° 175° (S) 3,523 7.3 -5.9°
Reaches altitude 10° 18:07:38 10° 170° (S) 2,576 6.6 -6.3°
Maximum altitude 18:13:19 55° 95° (E) 1,068 4.4 -7.3°
Drops below altitude 10° 18:18:57 10° 19° (NNE) 2,545 6.6 -8.3°
Sets 18:21:25 0° 15° (NNE) 3,478 7.3 -8.8°
